Amritsar, India

10:37 PM IST on February 09, 2016 (GMT +0530)
Amritsar

Weather History for VIAR - March, 2014

Change the Weather History Date:

Tuesday, March 18, 2014

  Actual Average Record
Temperature  
Mean Temperature 69 °F -  
Max Temperature 79 °F 77 °F 91 °F (2004)
Min Temperature 59 °F 55 °F 48 °F (2015)
Cooling Degree Days 4    
Growing Degree Days 19 (Base 50)    
Moisture  
Dew Point 60 °F    
Average Humidity 75    
Maximum Humidity 94    
Minimum Humidity 45    
Precipitation  
Precipitation 0.00 in - - ()
Sea Level Pressure  
Sea Level Pressure 29.99 in    
Wind  
Wind Speed 2 mph ()    
Max Wind Speed 9 mph    
Max Gust Speed 102 mph    
Visibility 2.8 miles    
Events Rain , Thunderstorm    
Averages and records for this station are not official NWS values.
T = Trace of Precipitation, MM = Missing Value Source: Averaged Metar Reports

Daily Weather History Graph

Daily Weather History Graph

Search for Another Location

Airport or City:

Trip Planner

Search our weather history database for the weather conditions in past years. The results will help you decide how hot, cold, wet, or windy it might be!

Date:

Astronomy

Mar. 18, 2014 Rise Set
Actual Time 6:37 AM IST 6:40 PM IST
Civil Twilight 6:13 AM IST 7:04 PM IST
Nautical Twilight 5:44 AM IST 7:32 PM IST
Astronomical Twilight 5:16 AM IST 8:01 PM IST
Moon 8:21 PM IST (3/18) 7:17 AM IST (3/18)
Length of Visible Light 12h 51m
Length of Day
12h 03m
Full, 98% of the Moon is Illuminated
Mar 18
Full
Mar 24
Last Quarter
Mar 31
New
Apr 7
First Quarter
Apr 15
Full

Hourly Weather History & Observations

Time (IST) Temp. Dew Point Humidity Pressure Visibility Wind Dir Wind Speed Gust Speed Precip Events Conditions
2:30 AM 62 °F 57 °F 80% 29.81 in 1 mi East 4.6 mph - - Rain , Thunderstorm Thunderstorms and Rain
5:30 AM 59.0 °F 57.2 °F 94% 29.86 in 1.9 mi Calm Calm - N/A   Mostly Cloudy
6:00 AM 59.0 °F 57.2 °F 94% 29.89 in 1.9 mi Calm Calm - N/A   Mostly Cloudy
6:30 AM 59.0 °F 57.2 °F 94% 29.89 in 1.9 mi Calm Calm - N/A   Mostly Cloudy
7:00 AM 59.0 °F 57.2 °F 94% 29.92 in 1.9 mi Calm Calm - N/A   Mostly Cloudy
7:30 AM 59.0 °F 57.2 °F 94% 29.95 in 1.9 mi Calm Calm - N/A   Mostly Cloudy
8:00 AM 60.8 °F 59.0 °F 94% 29.95 in 3.1 mi Calm Calm - N/A   Scattered Clouds
8:30 AM 62.6 °F 59.0 °F 88% 29.95 in 3.1 mi Calm Calm - N/A   Partly Cloudy
9:00 AM 64.4 °F 59.0 °F 83% 29.98 in 3.7 mi Calm Calm - N/A   Partly Cloudy
9:30 AM 66.2 °F 60.8 °F 83% 30.01 in 3.7 mi Calm Calm - N/A   Partly Cloudy
10:00 AM 69.8 °F 60.8 °F 73% 30.01 in 3.7 mi East 4.6 mph - N/A   Partly Cloudy
11:00 AM 71.6 °F 60.8 °F 69% 30.04 in 3.7 mi Variable 3.5 mph - N/A   Unknown
11:30 AM 73 °F 61 °F 57% 30.02 in 2 mi 1.2 mph - -  
11:30 AM 73.4 °F 60.8 °F 65% 30.04 in 3.7 mi Variable 1.2 mph - N/A   Unknown
12:00 PM 75.2 °F 60.8 °F 61% 30.04 in 3.7 mi Calm Calm - N/A   Unknown
12:30 PM 75.2 °F 59.0 °F 57% 30.04 in 3.7 mi Variable 1.2 mph - N/A   Partly Cloudy
1:00 PM 75.2 °F 59.0 °F 57% 30.04 in 3.7 mi Variable 2.3 mph - N/A   Partly Cloudy
1:30 PM 75.2 °F 60.8 °F 61% 30.04 in 3.7 mi Variable 4.6 mph - N/A   Scattered Clouds
2:00 PM 75.2 °F 59.0 °F 57% 30.01 in 3.7 mi West 5.8 mph - N/A   Scattered Clouds
2:30 PM 77 °F 60 °F 45% 29.98 in 2 mi WNW 4.6 mph - -   Partly Cloudy
2:30 PM 77.0 °F 59.0 °F 54% 30.01 in 3.7 mi Variable 4.6 mph 102.4 mph N/A   Scattered Clouds
3:00 PM 77.0 °F 60.8 °F 57% 30.01 in 3.7 mi West 4.6 mph - N/A   Scattered Clouds
3:30 PM 77.0 °F 59.0 °F 54% 29.98 in 3.7 mi Variable 4.6 mph - N/A   Scattered Clouds
4:00 PM 77.0 °F 59.0 °F 54% 29.98 in 3.7 mi WNW 9.2 mph - N/A   Scattered Clouds
4:30 PM 77.0 °F 60.8 °F 57% 29.98 in 3.7 mi WNW 8.1 mph - N/A   Scattered Clouds
5:00 PM 77.0 °F 60.8 °F 57% 29.98 in 3.7 mi NW 8.1 mph - N/A   Scattered Clouds
5:30 PM 75 °F 60 °F 51% 29.96 in 2 mi NW 9.2 mph - -   Scattered Clouds
5:30 PM 75.2 °F 60.8 °F 61% 29.98 in 3.7 mi NW 9.2 mph - N/A   Partly Cloudy
6:30 PM 71.6 °F 62.6 °F 73% 29.98 in 2.5 mi WNW 5.8 mph - N/A   Haze
7:00 PM 68.0 °F 62.6 °F 83% 29.98 in 2.5 mi WNW 4.6 mph - N/A   Haze
7:30 PM 68.0 °F 60.8 °F 78% 30.01 in 2.5 mi Calm Calm - N/A   Haze
8:00 PM 66.2 °F 60.8 °F 83% 30.01 in 2.5 mi Calm Calm - N/A   Haze
8:30 PM 65 °F 60 °F 81% 30.01 in 2 mi Calm Calm - -   Haze
8:30 PM 64.4 °F 60.8 °F 88% 30.01 in 2.5 mi Calm Calm - N/A   Haze
9:00 PM 64.4 °F 60.8 °F 88% 30.01 in 2.5 mi WNW 4.6 mph - N/A   Haze
9:30 PM 62.6 °F 59.0 °F 88% 30.04 in 2.5 mi Variable 2.3 mph - N/A   Haze
10:00 PM 62.6 °F 59.0 °F 88% 30.04 in 2.5 mi Calm Calm - N/A   Haze
10:30 PM 62.6 °F 59.0 °F 88% 30.04 in 2.2 mi Calm Calm - N/A   Haze
11:00 PM 60.8 °F 59.0 °F 94% 30.01 in 2.2 mi Calm Calm - N/A   Haze
11:30 PM 61 °F 59 °F 91% 30.01 in 2 mi Calm Calm - -   Mist
11:30 PM 60.8 °F 59.0 °F 94% 30.01 in 2.2 mi Calm Calm - N/A   Partly Cloudy